Skip Page Navigation
NASA JPL Caltech
NASA Logo - Jet Propulsion Laboratory + View the NASA Portal
+ Center for Near-Earth Object Studies
JPL Home Earth Solar System Stars & Galaxies Technology
JPL Solar System Dynamics
BODIES ORBITS EPHEMERIDES TOOLS PHYSICAL DATA DISCOVERY FAQ SITE MAP
IMPORTANT: The SSD Announcement email list is now available. Major changes are coming in the near future, including possible hostname and/or URL changes. To be notified of such changes, subscribe to this email list.

Please visit this page for more details.


JPL Small-Body Database Browser
Search: [ help ]  
19761 (2000 JP10)
Classification: Main-belt Asteroid          SPK-ID: 2019761
Ephemeris | Orbit Diagram | Orbital Elements | Mission Design | Physical Parameters | Discovery Circumstances | Close-Approach Data ]

[ show orbit diagram ]
Orbital Elements at Epoch 2459000.5 (2020-May-31.0) TDB
Reference: JPL 31 (heliocentric ecliptic J2000)
 Element Value Uncertainty (1-sigma)   Units 
e .2629367665873248 3.2348e-08  
a 2.309967728130128 9.7363e-09 au
q 1.702592282774523 7.7364e-08 au
i 22.12571071997541 4.1357e-06 deg
node 241.3375385027308 1.0075e-05 deg
peri 257.6597789120815 1.2756e-05 deg
M 327.5435919801163 9.9962e-06 deg
tp 2459116.112621613724
(2020-Sep-23.61262161)
3.5983e-05 TDB
period 1282.352124592556
3.51
8.1075e-06
2.22e-08
d
yr
n .2807341237215819 1.7749e-09 deg/d
Q 2.917343173485732 1.2296e-08 au
  Orbit Determination Parameters
   # obs. used (total)      1499  
   data-arc span      10351 days (28.34 yr)  
   first obs. used      1991-10-04  
   last obs. used      2020-02-05  
   planetary ephem.      DE431  
   SB-pert. ephem.      SB431-N16  
   condition code      0  
   norm. resid. RMS      .46712  
   source      ORB  
   producer      Otto Matic  
   solution date      2020-Feb-22 22:55:10  

Additional Information
 Earth MOID = .850728 au 
 Jupiter MOID = 2.5973 au 
 T_jup = 3.444 
[ show covariance matrix ]

Ephemeris | Orbit Diagram | Orbital Elements | Mission Design | Physical Parameters | Discovery Circumstances | Close-Approach Data ]

Physical Parameter Table
Parameter Symbol Value Units Sigma Reference Notes
absolute magnitude H 13.9   n/a MPO452450  
diameter diameter 5.370 km 0.030 urn:nasa:pds:neowise_diameters_albedos::2.0[mainbelt] (http://adsabs.harvard.edu/abs/2011ApJ...741...68M)  
geometric albedo albedo 0.223   0.036 urn:nasa:pds:neowise_diameters_albedos::2.0[mainbelt] (http://adsabs.harvard.edu/abs/2011ApJ...741...68M)  

19761 (2000 JP10)          Discovered 2000-May-07 by LINEAR at Socorro
Reference: 20001211/Numbers.arcLast Updated: 2004-04-19

[ show close-approach data ]
Alternate Designations
 2000 JP10 = 1996 BB3 
Ephemeris | Orbit Diagram | Orbital Elements | Mission Design | Physical Parameters | Discovery Circumstances | Close-Approach Data ]
ABOUT SSD CREDITS/AWARDS PRIVACY/COPYRIGHT GLOSSARY LINKS
FirstGov 2020-Apr-04 00:58 UT
(server date/time)  
NASA Home Page
Site Manager:   Ryan S. Park
Webmaster  Alan B. Chamberlin